Location: Bushrod
(6.3500°N, 10.7833°W)
Time: 09:55:25
(UTC+00:00)

USA 267 - Pass Details

Date: 17 September 2019
Orbit: 1102 x 1106 km, 123.0° (Epoch: 17 October)

Event Time Altitude Azimuth Distance (km) Brightness Sun altitude
Exits shadow 20:38:05 40° 171° (S) 1,568 3.9 -29.6°
Drops below altitude 10° 20:42:30 10° 200° (SSW) 2,960 5.6 -30.7°
Sets 20:45:04 0° 205° (SSW) 3,919 6.4 -31.3°
